Погода в Заславле

Беларусь     54˚00′16″N   27˚17′28″E
темп.,
°C
ветер,
м/с
пор.,
м/с
влажн.,
%
обл.,
%
осадки,
мм/ч
давл.,
гПа
погр.,
м
6 декабря, вс
вс600:00+1˚ююв9169195 0.0 1027519
03:00ююв8159193 0.0 1028649
06:00ююв9159297 0.0 1028625
09:00−1˚ююв9159094 0.0 1029537
12:00−1˚ююв9178135 0.0 1030551
15:00−1˚ююв9186918 0.0 1030570
18:00−2˚юв817650 0.0 1030458
21:00−3˚юв815650 0.0 1031437
7 декабря, пн
пн700:00−4˚юв817650 0.0 1031476
03:00−4˚юв815740 0.0 1031507
06:00−4˚юв815740 0.0 1030525
09:00−5˚юв815740 0.0 1030530
12:00−5˚юв917690 0.0 1030558
15:00−4˚юв915640 0.0 1030605
18:00−5˚юв815670 0.0 1030531
21:00−5˚юв815690 0.0 1030529
8 декабря, вт
вт800:00−6˚юв816720 0.0 1030548
03:00−6˚юв815700 0.0 1030507
06:00−6˚юв814700 0.0 1029479
09:00−7˚юв814700 0.0 1030438
12:00−6˚юв814690 0.0 1030444
15:00−5˚вюв814660 0.0 1029452
18:00−5˚вюв814680 0.0 1029436
21:00−6˚юв715700 0.0 1029561
9 декабря, ср
ср900:00−6˚юв713750 0.0 1029630
03:00−6˚юв612750 0.0 1029529
06:00−6˚юв712750 0.0 1029424
09:00−7˚юв612750 0.0 1029364
12:00−6˚юв610700 0.0 1029432
15:00−5˚юв6107016 0.0 1028506
18:00−5˚вюв6117884 0.0 1027471
21:00−5˚юв7127891 0.1 1027493
10 декабря, чт
чт1000:00−5˚юв6118098 0.0 1026465
03:00−5˚юв6118499 0.0 1026398
06:00−5˚юв7118699 0.0 1025350
09:00−4˚вюв6118897 0.1 1024292
12:00−4˚вюв7119099 0.3 1025344
15:00−3˚вюв6119096 0.3 1024308
18:00−3˚вюв7129298 0.1 1023344
21:00−2˚вюв7139499 0.4 1022399